Flag for U.S.A. Weather past 2 weeks in St. George, Utah, U.S.A.

Now
79 °F

Sunny.


Feels Like: 78 °F
Forecast: 66 / 91 °F
Wind: 5 mph from Northeast

Location: Saint George

Current Time: May 29, 2015 at 10:53:05 AM

Latest Report: May 29, 2015 at 10:15 AM


Visibility: 10 mi

Pressure: 30.08 "Hg

Humidity: 28%

Dew point: 43 °F

Location of St. GeorgeLocation

Historic Weather in St. George — Graph

°F

St. George temperature yesterday

Maximum temperature yesterday: 91 °F (at 4:55 PM)
Minimum temperature yesterday: 59 °F (at 6:55 AM)
Average temperature yesterday: 76 °F

Past Weeks' High & Low Weather Summary

 TemperatureHumidityPressure
High91 °F (May 28, 4:55 PM)88% (May 24, 4:55 AM)30.08 "Hg (May 24, 4:55 AM)
Low46 °F (May 16, 5:55 AM)11% (May 27, 7:15 PM)29.67 "Hg (May 14, 2:55 PM)
Average66 °F38%29.93 "Hg
* Reported May 14 9:15 AM — May 29 9:55 AM, St. George, Weather by CustomWeather, © 2015

Note: Actual official high and low records may vary slightly from our data, if they occured in-between our weather recording intervals... More about our weather records

Advertising

St. George weather history for previous 24 hours

 ConditionsComfort  
Time TempWeatherWind HumidityBarometerVisibility
9:55 AM
Fri, May 29
79 °FSunny.5 mph28%30.08 "Hg10 mi
9:35 AM77 °FSunny.No wind30%30.08 "Hg10 mi
9:15 AM75 °FSunny.3 mph31%30.08 "Hg10 mi
8:55 AM72 °FSunny.3 mph36%30.08 "Hg10 mi
8:35 AM72 °FSunny.No wind33%30.08 "Hg10 mi
8:15 AM70 °FSunny.No wind35%30.07 "Hg10 mi
7:55 AM70 °FSunny.No wind35%30.07 "Hg10 mi
7:35 AM70 °FSunny.No wind35%30.06 "Hg10 mi
7:15 AM66 °FClear.3 mph37%30.06 "Hg10 mi
6:55 AM66 °FClear.No wind35%30.05 "Hg10 mi
6:35 AM64 °FClear.3 mph37%30.04 "Hg10 mi
6:15 AM66 °FClear.6 mph37%30.04 "Hg10 mi
5:55 AM66 °FClear.6 mph35%30.03 "Hg10 mi
5:35 AM70 °FClear.No wind33%30.02 "Hg10 mi
5:15 AM70 °FClear.No wind33%30.02 "Hg10 mi
4:55 AM70 °FClear.3 mph33%30.02 "Hg10 mi
4:35 AM70 °FClear.6 mph31%30.02 "Hg10 mi
4:15 AM72 °FClear.No wind29%30.01 "Hg10 mi
3:55 AM72 °FClear.3 mph29%30.01 "Hg10 mi
3:35 AM73 °FClear.7 mph29%30.01 "Hg10 mi
3:15 AM73 °FClear.No wind29%30.01 "Hg10 mi
2:55 AM72 °FClear.6 mph31%30.01 "Hg10 mi
2:35 AM72 °FClear.7 mph31%30.00 "Hg10 mi
2:15 AM73 °FClear.7 mph29%30.00 "Hg10 mi
1:55 AM73 °FClear.5 mph29%30.00 "Hg10 mi
1:35 AM73 °FClear.7 mph31%30.00 "Hg10 mi
1:15 AM73 °FClear.8 mph31%30.00 "Hg10 mi
12:55 AM75 °FClear.10 mph27%29.99 "Hg10 mi
12:35 AM77 °FClear.13 mph28%30.00 "Hg10 mi
12:15 AM77 °FClear.10 mph28%30.00 "Hg10 mi
11:55 PM
Thu, May 28
79 °FClear.18 mph26%30.00 "Hg10 mi
11:35 PM79 °FClear.20 mph26%29.99 "Hg10 mi
11:15 PM77 °FClear.20 mph28%29.98 "Hg10 mi
10:55 PM77 °FClear.23 mph30%29.98 "Hg10 mi
10:35 PM75 °FClear.25 mph31%29.97 "Hg10 mi
10:15 PM77 °FClear.28 mph30%29.97 "Hg10 mi
9:35 PM81 °FSunny.32 mph24%29.95 "Hg10 mi
9:15 PM84 °FSunny.22 mph16%29.94 "Hg10 mi
8:55 PM88 °FSunny.6 mph15%29.92 "Hg10 mi
8:35 PM88 °FSunny.7 mph15%29.92 "Hg10 mi
8:15 PM88 °FSunny.7 mph13%29.92 "Hg10 mi
7:55 PM90 °FSunny.10 mph14%29.91 "Hg10 mi
7:35 PM90 °FSunny.10 mph14%29.91 "Hg10 mi
7:15 PM90 °FSunny.10 mph14%29.91 "Hg10 mi
6:55 PM90 °FSunny.12 mph14%29.91 "Hg10 mi
6:35 PM90 °FSunny.7 mph14%29.91 "Hg10 mi
6:15 PM90 °FSunny.12 mph14%29.91 "Hg10 mi
5:55 PM91 °FSunny.13 mph13%29.91 "Hg10 mi
5:35 PM90 °FSunny.5 mph14%29.91 "Hg10 mi
4:55 PM91 °FSunny.12 mph13%29.92 "Hg10 mi
3:55 PM90 °FSunny.13 mph15%29.94 "Hg10 mi
3:35 PM90 °FSunny.16 mph15%29.95 "Hg10 mi
3:15 PM90 °FSunny.7 mph15%29.95 "Hg10 mi
2:55 PM90 °FSunny.9 mph15%29.96 "Hg10 mi
2:35 PM90 °FSunny.7 mph16%29.97 "Hg10 mi
2:15 PM88 °FSunny.10 mph17%29.98 "Hg10 mi
1:55 PM84 °FSunny.5 mph19%29.99 "Hg10 mi
1:35 PM84 °FSunny.8 mph19%30.00 "Hg10 mi
1:15 PM84 °FSunny.6 mph19%30.01 "Hg10 mi
12:55 PM82 °FSunny.8 mph19%30.02 "Hg10 mi
12:35 PM81 °FSunny.7 mph20%30.03 "Hg10 mi
12:15 PM81 °FSunny.3 mph24%30.03 "Hg10 mi
11:55 AM79 °FSunny.No wind26%30.04 "Hg10 mi
11:35 AM79 °FSunny.3 mph26%30.04 "Hg10 mi
11:15 AM75 °FSunny.3 mph29%30.05 "Hg10 mi
10:55 AM73 °FSunny.No wind31%30.05 "Hg10 mi
10:35 AM72 °FSunny.No wind31%30.05 "Hg10 mi
10:15 AM72 °FSunny.5 mph31%30.06 "Hg10 mi
Weather by CustomWeather, © 2015

See weather overviewHow to use our weather pages